Year,Month,Day,Hour,Minute,Value (Times are PST for temperature in C)
2009,07,25,00,00,15.60
2009,07,25,00,01,15.70
2009,07,25,00,02,15.80
2009,07,25,00,03,15.80
2009,07,25,00,04,15.80
2009,07,25,00,05,15.80
2009,07,25,00,06,15.90
2009,07,25,00,07,15.90
2009,07,25,00,08,15.90
2009,07,25,00,09,16.10
2009,07,25,00,10,16.10
2009,07,25,00,11,16.10
2009,07,25,00,12,16.10
2009,07,25,00,13,16.10
2009,07,25,00,14,16.10
2009,07,25,00,15,16.10
2009,07,25,00,16,16.10
2009,07,25,00,17,16.10
2009,07,25,00,18,16.10
2009,07,25,00,19,16.10
2009,07,25,00,20,16.10
2009,07,25,00,21,16.10
2009,07,25,00,22,16.10
2009,07,25,00,23,16.10
2009,07,25,00,24,16.10
2009,07,25,00,25,16.10
2009,07,25,00,26,16.10
2009,07,25,00,27,16.10
2009,07,25,00,28,16.10
2009,07,25,00,29,16.10
2009,07,25,00,30,16.10
2009,07,25,00,31,15.90
2009,07,25,00,32,15.90
2009,07,25,00,33,15.90
2009,07,25,00,34,15.90
2009,07,25,00,35,15.80
2009,07,25,00,36,15.80
2009,07,25,00,37,15.80
2009,07,25,00,38,15.90
2009,07,25,00,39,15.90
2009,07,25,00,40,15.90
2009,07,25,00,41,16.00
2009,07,25,00,42,16.10
2009,07,25,00,43,16.10
2009,07,25,00,44,16.10
2009,07,25,00,45,16.10
2009,07,25,00,46,16.20
2009,07,25,00,47,16.20
2009,07,25,00,48,16.30
2009,07,25,00,49,16.30
2009,07,25,00,50,16.30
2009,07,25,00,51,16.40
2009,07,25,00,52,16.40
2009,07,25,00,53,16.40
2009,07,25,00,54,16.40
2009,07,25,00,55,16.40
2009,07,25,00,56,16.40
2009,07,25,00,57,16.40
2009,07,25,00,58,16.40
2009,07,25,00,59,16.30
2009,07,25,01,00,16.30
2009,07,25,01,01,16.30
2009,07,25,01,02,16.20
2009,07,25,01,03,16.20
2009,07,25,01,04,16.10
2009,07,25,01,05,16.10
2009,07,25,01,06,16.00
2009,07,25,01,07,15.90
2009,07,25,01,08,15.90
2009,07,25,01,09,15.80
2009,07,25,01,10,15.80
2009,07,25,01,11,15.80
2009,07,25,01,12,15.80
2009,07,25,01,13,15.90
2009,07,25,01,14,15.90
2009,07,25,01,15,16.10
2009,07,25,01,16,16.10
2009,07,25,01,17,16.10
2009,07,25,01,18,16.10
2009,07,25,01,19,16.10
2009,07,25,01,20,16.10
2009,07,25,01,21,16.10
2009,07,25,01,22,16.20
2009,07,25,01,23,16.20
2009,07,25,01,24,16.20
2009,07,25,01,25,16.20
2009,07,25,01,26,16.20
2009,07,25,01,27,16.20
2009,07,25,01,28,16.20
2009,07,25,01,29,16.20
2009,07,25,01,30,16.20
2009,07,25,01,31,16.10
2009,07,25,01,32,16.00
2009,07,25,01,33,15.90
2009,07,25,01,34,15.80
2009,07,25,01,35,15.80
2009,07,25,01,36,15.80
2009,07,25,01,37,15.70
2009,07,25,01,38,15.60
2009,07,25,01,39,15.60
2009,07,25,01,40,15.50
2009,07,25,01,41,15.50
2009,07,25,01,42,15.50
2009,07,25,01,43,15.40
2009,07,25,01,44,15.40
2009,07,25,01,45,15.40
2009,07,25,01,46,15.40
2009,07,25,01,47,15.40
2009,07,25,01,48,15.40
2009,07,25,01,49,15.40
2009,07,25,01,50,15.40
2009,07,25,01,51,15.40
2009,07,25,01,52,15.40
2009,07,25,01,53,15.40
2009,07,25,01,54,15.30
2009,07,25,01,55,15.30
2009,07,25,01,56,15.20
2009,07,25,01,57,15.10
2009,07,25,01,58,15.10
2009,07,25,01,59,15.00
2009,07,25,02,00,14.80
2009,07,25,02,01,14.70
2009,07,25,02,02,14.60
2009,07,25,02,03,14.50
2009,07,25,02,04,14.40
2009,07,25,02,05,14.30
2009,07,25,02,06,14.20
2009,07,25,02,07,14.20
2009,07,25,02,08,14.20
2009,07,25,02,09,14.20
2009,07,25,02,10,14.20
2009,07,25,02,11,14.20
2009,07,25,02,12,14.20
2009,07,25,02,13,14.20
2009,07,25,02,14,14.20
2009,07,25,02,15,14.20
2009,07,25,02,16,14.20
2009,07,25,02,17,14.20
2009,07,25,02,18,14.20
2009,07,25,02,19,14.10
2009,07,25,02,20,14.00
2009,07,25,02,21,14.00
2009,07,25,02,22,13.90
2009,07,25,02,23,13.80
2009,07,25,02,24,13.70
2009,07,25,02,25,13.60
2009,07,25,02,26,13.50
2009,07,25,02,27,13.40
2009,07,25,02,28,13.30
2009,07,25,02,29,13.20
2009,07,25,02,30,13.10
2009,07,25,02,31,13.00
2009,07,25,02,32,12.80
2009,07,25,02,33,12.70
2009,07,25,02,34,12.70
2009,07,25,02,35,12.60
2009,07,25,02,36,12.60
2009,07,25,02,37,12.50
2009,07,25,02,38,12.50
2009,07,25,02,39,12.50
2009,07,25,02,40,12.40
2009,07,25,02,41,12.40
2009,07,25,02,42,12.40
2009,07,25,02,43,12.50
2009,07,25,02,44,12.50
2009,07,25,02,45,12.50
2009,07,25,02,46,12.40
2009,07,25,02,47,12.40
2009,07,25,02,48,12.40
2009,07,25,02,49,12.40
2009,07,25,02,50,12.40
2009,07,25,02,51,12.40
2009,07,25,02,52,12.40
2009,07,25,02,53,12.40
2009,07,25,02,54,12.40
2009,07,25,02,55,12.30
2009,07,25,02,56,12.40
2009,07,25,02,57,12.40
2009,07,25,02,58,12.40
2009,07,25,02,59,12.40
2009,07,25,03,00,12.40
2009,07,25,03,01,12.40
2009,07,25,03,02,12.40
2009,07,25,03,03,12.40
2009,07,25,03,04,12.50
2009,07,25,03,05,12.50
2009,07,25,03,06,12.50
2009,07,25,03,07,12.50
2009,07,25,03,08,12.50
2009,07,25,03,09,12.50
2009,07,25,03,10,12.50
2009,07,25,03,11,12.50
2009,07,25,03,12,12.50
2009,07,25,03,13,12.50
2009,07,25,03,14,12.50
2009,07,25,03,15,12.60
2009,07,25,03,16,12.60
2009,07,25,03,17,12.60
2009,07,25,03,18,12.60
2009,07,25,03,19,12.70
2009,07,25,03,20,12.70
2009,07,25,03,21,12.70
2009,07,25,03,22,12.70
2009,07,25,03,23,12.70
2009,07,25,03,24,12.70
2009,07,25,03,25,12.70
2009,07,25,03,26,12.80
2009,07,25,03,27,12.80
2009,07,25,03,28,12.80
2009,07,25,03,29,12.80
2009,07,25,03,30,12.80
2009,07,25,03,31,12.80
2009,07,25,03,32,12.80
2009,07,25,03,33,12.80
2009,07,25,03,34,12.80
2009,07,25,03,35,12.80
2009,07,25,03,36,12.80
2009,07,25,03,37,12.80
2009,07,25,03,38,12.90
2009,07,25,03,39,12.90
2009,07,25,03,40,12.90
2009,07,25,03,41,12.90
2009,07,25,03,42,13.00
2009,07,25,03,43,13.00
2009,07,25,03,44,13.00
2009,07,25,03,45,13.00
2009,07,25,03,46,13.00
2009,07,25,03,47,13.10
2009,07,25,03,48,13.10
2009,07,25,03,49,13.10
2009,07,25,03,50,13.20
2009,07,25,03,51,13.20
2009,07,25,03,52,13.30
2009,07,25,03,53,13.30
2009,07,25,03,54,13.30
2009,07,25,03,55,13.30
2009,07,25,03,56,13.30
2009,07,25,03,57,13.40
2009,07,25,03,58,13.40
2009,07,25,03,59,13.50
2009,07,25,04,00,13.50
2009,07,25,04,01,13.60
2009,07,25,04,02,13.60
2009,07,25,04,03,13.70
2009,07,25,04,04,13.70
2009,07,25,04,05,13.70
2009,07,25,04,06,13.80
2009,07,25,04,07,13.80
2009,07,25,04,08,13.90
2009,07,25,04,09,13.90
2009,07,25,04,10,13.90
2009,07,25,04,11,13.90
2009,07,25,04,12,14.00
2009,07,25,04,13,14.00
2009,07,25,04,14,14.10
2009,07,25,04,15,14.10
2009,07,25,04,16,14.20
2009,07,25,04,17,14.20
2009,07,25,04,18,14.20
2009,07,25,04,19,14.20
2009,07,25,04,20,14.20
2009,07,25,04,21,14.20
2009,07,25,04,22,14.30
2009,07,25,04,23,14.30
2009,07,25,04,24,14.40
2009,07,25,04,25,14.40
2009,07,25,04,26,14.50
2009,07,25,04,27,14.50
2009,07,25,04,28,14.40
2009,07,25,04,29,14.20
2009,07,25,04,30,14.10
2009,07,25,04,31,13.90
2009,07,25,04,32,13.80
2009,07,25,04,33,13.60
2009,07,25,04,34,13.60
2009,07,25,04,35,13.50
2009,07,25,04,36,13.40
2009,07,25,04,37,13.40
2009,07,25,04,38,13.40
2009,07,25,04,39,13.30
2009,07,25,04,40,13.30
2009,07,25,04,41,13.30
2009,07,25,04,42,13.30
2009,07,25,04,43,13.30
2009,07,25,04,44,13.30
2009,07,25,04,45,13.30
2009,07,25,04,46,13.30
2009,07,25,04,47,13.30
2009,07,25,04,48,13.30
2009,07,25,04,49,13.30
2009,07,25,04,50,13.30
2009,07,25,04,51,13.30
2009,07,25,04,52,13.30
2009,07,25,04,53,13.40
2009,07,25,04,54,13.40
2009,07,25,04,55,13.40
2009,07,25,04,56,13.40
2009,07,25,04,57,13.40
2009,07,25,04,58,13.40
2009,07,25,04,59,13.40
2009,07,25,05,00,13.40
2009,07,25,05,01,13.40
2009,07,25,05,02,13.40
2009,07,25,05,03,13.40
2009,07,25,05,04,13.40
2009,07,25,05,05,13.40
2009,07,25,05,06,13.40
2009,07,25,05,07,13.40
2009,07,25,05,08,13.40
2009,07,25,05,09,13.40
2009,07,25,05,10,13.40
2009,07,25,05,11,13.40
2009,07,25,05,12,13.40
2009,07,25,05,13,13.40
2009,07,25,05,14,13.40
2009,07,25,05,15,13.40
2009,07,25,05,16,13.50
2009,07,25,05,17,13.50
2009,07,25,05,18,13.50
2009,07,25,05,19,13.50
2009,07,25,05,20,13.50
2009,07,25,05,21,13.50
2009,07,25,05,22,13.50
2009,07,25,05,23,13.50
2009,07,25,05,24,13.50
2009,07,25,05,25,13.50
2009,07,25,05,26,13.50
2009,07,25,05,27,13.50
2009,07,25,05,28,13.50
2009,07,25,05,29,13.50
2009,07,25,05,30,13.60
2009,07,25,05,31,13.60
2009,07,25,05,32,13.60
2009,07,25,05,33,13.60
2009,07,25,05,34,13.60
2009,07,25,05,35,13.60
2009,07,25,05,36,13.60
2009,07,25,05,37,13.70
2009,07,25,05,38,13.70
2009,07,25,05,39,13.70
2009,07,25,05,40,13.70
2009,07,25,05,41,13.70
2009,07,25,05,42,13.70
2009,07,25,05,43,13.70
2009,07,25,05,44,13.70
2009,07,25,05,45,13.80
2009,07,25,05,46,13.80
2009,07,25,05,47,13.80
2009,07,25,05,48,13.80
2009,07,25,05,49,13.90
2009,07,25,05,50,13.90
2009,07,25,05,51,13.90
2009,07,25,05,52,13.90
2009,07,25,05,53,13.90
2009,07,25,05,54,13.90
2009,07,25,05,55,14.00
2009,07,25,05,56,14.00
2009,07,25,05,57,14.10
2009,07,25,05,58,14.10
2009,07,25,05,59,14.10
2009,07,25,06,00,14.20
2009,07,25,06,01,14.20
2009,07,25,06,02,14.20
2009,07,25,06,03,14.20
2009,07,25,06,04,14.20
2009,07,25,06,05,14.20
2009,07,25,06,06,14.20
2009,07,25,06,07,14.20
2009,07,25,06,08,14.20
2009,07,25,06,09,14.30
2009,07,25,06,10,14.30
2009,07,25,06,11,14.30
2009,07,25,06,12,14.40
2009,07,25,06,13,14.40
2009,07,25,06,14,14.40
2009,07,25,06,15,14.50
2009,07,25,06,16,14.50
2009,07,25,06,17,14.50
2009,07,25,06,18,14.50
2009,07,25,06,19,14.60
2009,07,25,06,20,14.60
2009,07,25,06,21,14.70
2009,07,25,06,22,14.80
2009,07,25,06,23,14.80
2009,07,25,06,24,14.80
2009,07,25,06,25,14.80
2009,07,25,06,26,14.90
2009,07,25,06,27,14.90
2009,07,25,06,28,14.90
2009,07,25,06,29,15.00
2009,07,25,06,30,15.00
2009,07,25,06,31,15.00
2009,07,25,06,32,15.10
2009,07,25,06,33,15.10
2009,07,25,06,34,15.10
2009,07,25,06,35,15.20
2009,07,25,06,36,15.20
2009,07,25,06,37,15.20
2009,07,25,06,38,15.20
2009,07,25,06,39,15.20
2009,07,25,06,40,15.30
2009,07,25,06,41,15.30
2009,07,25,06,42,15.30
2009,07,25,06,43,15.30
2009,07,25,06,44,15.30
2009,07,25,06,45,15.30
2009,07,25,06,46,15.30
2009,07,25,06,47,15.30
2009,07,25,06,48,15.30
2009,07,25,06,49,15.30
2009,07,25,06,50,15.30
2009,07,25,06,51,15.30
2009,07,25,06,52,15.40
2009,07,25,06,53,15.40
2009,07,25,06,54,15.40
2009,07,25,06,55,15.40
2009,07,25,06,56,15.40
2009,07,25,06,57,15.50
2009,07,25,06,58,15.50
2009,07,25,06,59,15.50
2009,07,25,07,00,15.50
2009,07,25,07,01,15.60
2009,07,25,07,02,15.60
2009,07,25,07,03,15.70
2009,07,25,07,04,15.70
2009,07,25,07,05,15.70
2009,07,25,07,06,15.80
2009,07,25,07,07,15.80
2009,07,25,07,08,15.80
2009,07,25,07,09,15.80
2009,07,25,07,10,15.80
2009,07,25,07,11,15.80
2009,07,25,07,12,15.90
2009,07,25,07,13,15.90
2009,07,25,07,14,15.90
2009,07,25,07,15,16.00
2009,07,25,07,16,16.10
2009,07,25,07,17,16.10
2009,07,25,07,18,16.10
2009,07,25,07,19,16.20
2009,07,25,07,20,16.20
2009,07,25,07,21,16.30
2009,07,25,07,22,16.30
2009,07,25,07,23,16.40
2009,07,25,07,24,16.50
2009,07,25,07,25,16.60
2009,07,25,07,26,16.70
2009,07,25,07,27,16.80
2009,07,25,07,28,16.90
2009,07,25,07,29,16.90
2009,07,25,07,30,17.00
2009,07,25,07,31,17.10
2009,07,25,07,32,17.20
2009,07,25,07,33,17.20
2009,07,25,07,34,17.30
2009,07,25,07,35,17.40
2009,07,25,07,36,17.50
2009,07,25,07,37,17.50
2009,07,25,07,38,17.70
2009,07,25,07,39,17.70
2009,07,25,07,40,17.80
2009,07,25,07,41,17.80
2009,07,25,07,42,17.80
2009,07,25,07,43,17.70
2009,07,25,07,44,17.60
2009,07,25,07,45,17.50
2009,07,25,07,46,17.30
2009,07,25,07,47,17.20
2009,07,25,07,48,17.10
2009,07,25,07,49,17.00
2009,07,25,07,50,17.00
2009,07,25,07,51,17.00
2009,07,25,07,52,16.90
2009,07,25,07,53,16.90
2009,07,25,07,54,17.00
2009,07,25,07,55,17.00
2009,07,25,07,56,17.00
2009,07,25,07,57,17.10
2009,07,25,07,58,17.20
2009,07,25,07,59,17.30
2009,07,25,08,00,17.30
2009,07,25,08,01,17.50
2009,07,25,08,02,17.60
2009,07,25,08,03,17.70
2009,07,25,08,04,17.90
2009,07,25,08,05,18.00
2009,07,25,08,06,18.10
2009,07,25,08,07,18.20
2009,07,25,08,08,18.40
2009,07,25,08,09,18.50
2009,07,25,08,10,18.60
2009,07,25,08,11,18.70
2009,07,25,08,12,18.70
2009,07,25,08,13,18.80
2009,07,25,08,14,18.90
2009,07,25,08,15,18.90
2009,07,25,08,16,18.90
2009,07,25,08,17,18.90
2009,07,25,08,18,18.90
2009,07,25,08,19,18.90
2009,07,25,08,20,18.90
2009,07,25,08,21,18.90
2009,07,25,08,22,18.90
2009,07,25,08,23,18.90
2009,07,25,08,24,18.90
2009,07,25,08,25,18.90
2009,07,25,08,26,18.90
2009,07,25,08,27,18.90
2009,07,25,08,28,19.00
2009,07,25,08,29,19.10
2009,07,25,08,30,19.10
2009,07,25,08,31,19.10
2009,07,25,08,32,19.10
2009,07,25,08,33,19.10
2009,07,25,08,34,19.20
2009,07,25,08,35,19.20
2009,07,25,08,36,19.30
2009,07,25,08,37,19.30
2009,07,25,08,38,19.30
2009,07,25,08,39,19.40
2009,07,25,08,40,19.40
2009,07,25,08,41,19.40
2009,07,25,08,42,19.40
2009,07,25,08,43,19.40
2009,07,25,08,44,19.30
2009,07,25,08,45,19.30
2009,07,25,08,46,19.30
2009,07,25,08,47,19.30
2009,07,25,08,48,19.20
2009,07,25,08,49,19.10
2009,07,25,08,50,19.00
2009,07,25,08,51,18.90
2009,07,25,08,52,18.80
2009,07,25,08,53,18.70
2009,07,25,08,54,18.70
2009,07,25,08,55,18.70
2009,07,25,08,56,18.60
2009,07,25,08,57,18.60
2009,07,25,08,58,18.50
2009,07,25,08,59,18.40
2009,07,25,09,00,18.40
2009,07,25,09,01,18.30
2009,07,25,09,02,18.20
2009,07,25,09,03,18.20
2009,07,25,09,04,18.10
2009,07,25,09,05,18.10
2009,07,25,09,06,18.10
2009,07,25,09,07,18.00
2009,07,25,09,08,17.90
2009,07,25,09,09,17.90
2009,07,25,09,10,17.90
2009,07,25,09,11,18.00
2009,07,25,09,12,18.10
2009,07,25,09,13,17.90
2009,07,25,09,14,17.90
2009,07,25,09,15,17.90
2009,07,25,09,16,17.90
2009,07,25,09,17,17.90
2009,07,25,09,18,18.10
2009,07,25,09,19,18.10
2009,07,25,09,20,18.10
2009,07,25,09,21,18.00
2009,07,25,09,22,17.90
2009,07,25,09,23,17.90
2009,07,25,09,24,17.90
2009,07,25,09,25,17.90
2009,07,25,09,26,17.90
2009,07,25,09,27,17.90
2009,07,25,09,28,17.70
2009,07,25,09,29,17.60
2009,07,25,09,30,17.50
2009,07,25,09,31,17.40
2009,07,25,09,32,17.30
2009,07,25,09,33,17.30
2009,07,25,09,34,17.30
2009,07,25,09,35,17.30
2009,07,25,09,36,17.20
2009,07,25,09,37,17.20
2009,07,25,09,38,17.20
2009,07,25,09,39,17.20
2009,07,25,09,40,17.20
2009,07,25,09,41,17.30
2009,07,25,09,42,17.30
2009,07,25,09,43,17.30
2009,07,25,09,44,17.20
2009,07,25,09,45,17.20
2009,07,25,09,46,17.30
2009,07,25,09,47,17.30
2009,07,25,09,48,17.30
2009,07,25,09,49,17.30
2009,07,25,09,50,17.30
2009,07,25,09,51,17.30
2009,07,25,09,52,17.40
2009,07,25,09,53,17.40
2009,07,25,09,54,17.50
2009,07,25,09,55,17.50
2009,07,25,09,56,17.50
2009,07,25,09,57,17.50
2009,07,25,09,58,17.50
2009,07,25,09,59,17.60
2009,07,25,10,00,17.60
2009,07,25,10,01,17.60
2009,07,25,10,02,17.70
2009,07,25,10,03,17.70
2009,07,25,10,04,17.80
2009,07,25,10,05,17.90
2009,07,25,10,06,17.90
2009,07,25,10,07,18.00
2009,07,25,10,08,18.20
2009,07,25,10,09,18.30
2009,07,25,10,10,18.50
2009,07,25,10,11,18.50
2009,07,25,10,12,18.60
2009,07,25,10,13,18.60
2009,07,25,10,14,18.60
2009,07,25,10,15,18.70
2009,07,25,10,16,18.80
2009,07,25,10,17,18.90
2009,07,25,10,18,19.00
2009,07,25,10,19,19.10
2009,07,25,10,20,19.10
2009,07,25,10,21,19.10
2009,07,25,10,22,19.20
2009,07,25,10,23,19.30
2009,07,25,10,24,19.30
2009,07,25,10,25,19.30
2009,07,25,10,26,19.40
2009,07,25,10,27,19.40
2009,07,25,10,28,19.50
2009,07,25,10,29,19.50
2009,07,25,10,30,19.60
2009,07,25,10,31,19.60
2009,07,25,10,32,19.70
2009,07,25,10,33,19.70
2009,07,25,10,34,19.80
2009,07,25,10,35,19.90
2009,07,25,10,36,19.90
2009,07,25,10,37,19.90
2009,07,25,10,38,20.10
2009,07,25,10,39,20.20
2009,07,25,10,40,20.10
2009,07,25,10,41,20.10
2009,07,25,10,42,20.20
2009,07,25,10,43,20.20
2009,07,25,10,44,20.20
2009,07,25,10,45,20.40
2009,07,25,10,46,20.50
2009,07,25,10,47,20.70
2009,07,25,10,48,20.80
2009,07,25,10,49,20.80
2009,07,25,10,50,20.80
2009,07,25,10,51,20.90
2009,07,25,10,52,20.90
2009,07,25,10,53,20.90
2009,07,25,10,54,20.80
2009,07,25,10,55,20.70
2009,07,25,10,56,20.70
2009,07,25,10,57,20.80
2009,07,25,10,58,21.00
2009,07,25,10,59,21.10
2009,07,25,11,00,21.20
2009,07,25,11,01,21.10
2009,07,25,11,02,21.10
2009,07,25,11,03,21.00
2009,07,25,11,04,21.00
2009,07,25,11,05,21.10
2009,07,25,11,06,21.30
2009,07,25,11,07,21.40
2009,07,25,11,08,21.40
2009,07,25,11,09,21.40
2009,07,25,11,10,21.30
2009,07,25,11,11,21.30
2009,07,25,11,12,21.30
2009,07,25,11,13,21.30
2009,07,25,11,14,21.20
2009,07,25,11,15,21.20
2009,07,25,11,16,21.30
2009,07,25,11,17,21.40
2009,07,25,11,18,21.50
2009,07,25,11,19,21.60
2009,07,25,11,20,21.50
2009,07,25,11,21,21.40
2009,07,25,11,22,21.40
2009,07,25,11,23,21.50
2009,07,25,11,24,21.60
2009,07,25,11,25,21.60
2009,07,25,11,26,21.60
2009,07,25,11,27,21.60
2009,07,25,11,28,21.50
2009,07,25,11,29,21.40
2009,07,25,11,30,21.40
2009,07,25,11,31,21.40
2009,07,25,11,32,21.60
2009,07,25,11,33,21.60
2009,07,25,11,34,21.60
2009,07,25,11,35,21.70
2009,07,25,11,36,21.70
2009,07,25,11,37,21.60
2009,07,25,11,38,21.60
2009,07,25,11,39,21.60
2009,07,25,11,40,21.50
2009,07,25,11,41,21.40
2009,07,25,11,42,21.40
2009,07,25,11,43,21.40
2009,07,25,11,44,21.40
2009,07,25,11,45,21.30
2009,07,25,11,46,21.30
2009,07,25,11,47,21.30
2009,07,25,11,48,21.30
2009,07,25,11,49,21.30
2009,07,25,11,50,21.30
2009,07,25,11,51,21.30
2009,07,25,11,52,21.40
2009,07,25,11,53,21.40
2009,07,25,11,54,21.40
2009,07,25,11,55,21.40
2009,07,25,11,56,21.50
2009,07,25,11,57,21.60
2009,07,25,11,58,21.60
2009,07,25,11,59,21.60
2009,07,25,12,00,21.60
2009,07,25,12,01,21.80
2009,07,25,12,02,21.90
2009,07,25,12,03,22.10
2009,07,25,12,04,22.20
2009,07,25,12,05,22.10
2009,07,25,12,06,22.00
2009,07,25,12,07,21.90
2009,07,25,12,08,21.80
2009,07,25,12,09,21.80
2009,07,25,12,10,22.00
2009,07,25,12,11,22.20
2009,07,25,12,12,22.30
2009,07,25,12,13,22.40
2009,07,25,12,14,22.30
2009,07,25,12,15,22.30
2009,07,25,12,16,22.30
2009,07,25,12,17,22.30
2009,07,25,12,18,22.40
2009,07,25,12,19,22.60
2009,07,25,12,20,22.70
2009,07,25,12,21,22.80
2009,07,25,12,22,22.70
2009,07,25,12,23,22.60
2009,07,25,12,24,22.60
2009,07,25,12,25,22.70
2009,07,25,12,26,22.70
2009,07,25,12,27,22.80
2009,07,25,12,28,22.80
2009,07,25,12,29,22.80
2009,07,25,12,30,22.80
2009,07,25,12,31,22.80
2009,07,25,12,32,22.80
2009,07,25,12,33,22.80
2009,07,25,12,34,22.70
2009,07,25,12,35,22.60
2009,07,25,12,36,22.60
2009,07,25,12,37,22.50
2009,07,25,12,38,22.60
2009,07,25,12,39,22.60
2009,07,25,12,40,22.70
2009,07,25,12,41,22.80
2009,07,25,12,42,22.70
2009,07,25,12,43,22.70
2009,07,25,12,44,22.70
2009,07,25,12,45,22.70
2009,07,25,12,46,22.70
2009,07,25,12,47,22.70
2009,07,25,12,48,22.70
2009,07,25,12,49,22.60
2009,07,25,12,50,22.60
2009,07,25,12,51,22.50
2009,07,25,12,52,22.50
2009,07,25,12,53,22.50
2009,07,25,12,54,22.50
2009,07,25,12,55,22.60
2009,07,25,12,56,22.60
2009,07,25,12,57,22.70
2009,07,25,12,58,22.70
2009,07,25,12,59,22.80
2009,07,25,13,00,22.90
2009,07,25,13,01,22.90
2009,07,25,13,02,22.90
2009,07,25,13,03,22.90
2009,07,25,13,04,22.90
2009,07,25,13,05,23.00
2009,07,25,13,06,23.10
2009,07,25,13,07,23.20
2009,07,25,13,08,23.20
2009,07,25,13,09,23.20
2009,07,25,13,10,23.20
2009,07,25,13,11,23.20
2009,07,25,13,12,23.10
2009,07,25,13,13,23.00
2009,07,25,13,14,23.10
2009,07,25,13,15,23.10
2009,07,25,13,16,23.10
2009,07,25,13,17,23.10
2009,07,25,13,18,23.20
2009,07,25,13,19,23.30
2009,07,25,13,20,23.50
2009,07,25,13,21,23.60
2009,07,25,13,22,23.60
2009,07,25,13,23,23.50
2009,07,25,13,24,23.40
2009,07,25,13,25,23.30
2009,07,25,13,26,23.20
2009,07,25,13,27,23.00
2009,07,25,13,28,22.90
2009,07,25,13,29,23.00
2009,07,25,13,30,23.10
2009,07,25,13,31,23.10
2009,07,25,13,32,23.10
2009,07,25,13,33,23.00
2009,07,25,13,34,22.90
2009,07,25,13,35,22.90
2009,07,25,13,36,23.00
2009,07,25,13,37,23.10
2009,07,25,13,38,22.90
2009,07,25,13,39,22.90
2009,07,25,13,40,22.80
2009,07,25,13,41,22.90
2009,07,25,13,42,22.90
2009,07,25,13,43,23.00
2009,07,25,13,44,23.10
2009,07,25,13,45,23.20
2009,07,25,13,46,23.30
2009,07,25,13,47,23.30
2009,07,25,13,48,23.30
2009,07,25,13,49,23.30
2009,07,25,13,50,23.30
2009,07,25,13,51,23.30
2009,07,25,13,52,23.30
2009,07,25,13,53,23.30
2009,07,25,13,54,23.30
2009,07,25,13,55,23.30
2009,07,25,13,56,23.30
2009,07,25,13,57,23.30
2009,07,25,13,58,23.20
2009,07,25,13,59,23.10
2009,07,25,14,00,22.90
2009,07,25,14,01,22.90
2009,07,25,14,02,23.10
2009,07,25,14,03,23.20
2009,07,25,14,04,23.30
2009,07,25,14,05,23.30
2009,07,25,14,06,23.30
2009,07,25,14,07,23.50
2009,07,25,14,08,23.70
2009,07,25,14,09,23.70
2009,07,25,14,10,23.80
2009,07,25,14,11,23.80
2009,07,25,14,12,23.70
2009,07,25,14,13,23.70
2009,07,25,14,14,23.70
2009,07,25,14,15,23.70
2009,07,25,14,16,23.60
2009,07,25,14,17,23.50
2009,07,25,14,18,23.50
2009,07,25,14,19,23.50
2009,07,25,14,20,23.30
2009,07,25,14,21,23.30
2009,07,25,14,22,23.30
2009,07,25,14,23,23.30
2009,07,25,14,24,23.30
2009,07,25,14,25,23.30
2009,07,25,14,26,23.30
2009,07,25,14,27,23.30
2009,07,25,14,28,23.40
2009,07,25,14,29,23.40
2009,07,25,14,30,23.40
2009,07,25,14,31,23.50
2009,07,25,14,32,23.60
2009,07,25,14,33,23.60
2009,07,25,14,34,23.60
2009,07,25,14,35,23.60
2009,07,25,14,36,23.60
2009,07,25,14,37,23.60
2009,07,25,14,38,23.60
2009,07,25,14,39,23.60
2009,07,25,14,40,23.70
2009,07,25,14,41,23.70
2009,07,25,14,42,23.80
2009,07,25,14,43,23.80
2009,07,25,14,44,23.90
2009,07,25,14,45,23.90
2009,07,25,14,46,23.80
2009,07,25,14,47,23.90
2009,07,25,14,48,24.00
2009,07,25,14,49,24.10
2009,07,25,14,50,24.20
2009,07,25,14,51,24.20
2009,07,25,14,52,24.20
2009,07,25,14,53,24.20
2009,07,25,14,54,24.20
2009,07,25,14,55,24.20
2009,07,25,14,56,24.30
2009,07,25,14,57,24.30
2009,07,25,14,58,24.30
2009,07,25,14,59,24.30
2009,07,25,15,00,24.40
2009,07,25,15,01,24.40
2009,07,25,15,02,24.30
2009,07,25,15,03,24.30
2009,07,25,15,04,24.30
2009,07,25,15,05,24.30
2009,07,25,15,06,24.30
2009,07,25,15,07,24.30
2009,07,25,15,08,24.40
2009,07,25,15,09,24.50
2009,07,25,15,10,24.50
2009,07,25,15,11,24.50
2009,07,25,15,12,24.50
2009,07,25,15,13,24.70
2009,07,25,15,14,24.70
2009,07,25,15,15,24.70
2009,07,25,15,16,24.60
2009,07,25,15,17,24.60
2009,07,25,15,18,24.50
2009,07,25,15,19,24.40
2009,07,25,15,20,24.40
2009,07,25,15,21,24.30
2009,07,25,15,22,24.20
2009,07,25,15,23,24.20
2009,07,25,15,24,24.30
2009,07,25,15,25,24.40
2009,07,25,15,26,24.40
2009,07,25,15,27,24.50
2009,07,25,15,28,24.40
2009,07,25,15,29,24.30
2009,07,25,15,30,24.40
2009,07,25,15,31,24.30
2009,07,25,15,32,24.20
2009,07,25,15,33,24.30
2009,07,25,15,34,24.30
2009,07,25,15,35,24.30
2009,07,25,15,36,24.40
2009,07,25,15,37,24.50
2009,07,25,15,38,24.50
2009,07,25,15,39,24.40
2009,07,25,15,40,24.40
2009,07,25,15,41,24.40
2009,07,25,15,42,24.40
2009,07,25,15,43,24.40
2009,07,25,15,44,24.50
2009,07,25,15,45,24.60
2009,07,25,15,46,24.80
2009,07,25,15,47,24.90
2009,07,25,15,48,25.00
2009,07,25,15,49,25.00
2009,07,25,15,50,25.10
2009,07,25,15,51,25.10
2009,07,25,15,52,25.10
2009,07,25,15,53,25.10
2009,07,25,15,54,25.00
2009,07,25,15,55,25.00
2009,07,25,15,56,25.00
2009,07,25,15,57,25.00
2009,07,25,15,58,24.90
2009,07,25,15,59,24.90
2009,07,25,16,00,24.90
2009,07,25,16,01,24.90
2009,07,25,16,02,25.00
2009,07,25,16,03,25.00
2009,07,25,16,04,24.90
2009,07,25,16,05,24.80
2009,07,25,16,06,24.80
2009,07,25,16,07,24.80
2009,07,25,16,08,24.80
2009,07,25,16,09,24.80
2009,07,25,16,10,24.90
2009,07,25,16,11,24.90
2009,07,25,16,12,24.90
2009,07,25,16,13,25.00
2009,07,25,16,14,24.90
2009,07,25,16,15,24.90
2009,07,25,16,16,24.90
2009,07,25,16,17,24.90
2009,07,25,16,18,24.90
2009,07,25,16,19,24.80
2009,07,25,16,20,24.90
2009,07,25,16,21,25.00
2009,07,25,16,22,25.00
2009,07,25,16,23,25.10
2009,07,25,16,24,25.20
2009,07,25,16,25,25.30
2009,07,25,16,26,25.30
2009,07,25,16,27,25.20
2009,07,25,16,28,25.10
2009,07,25,16,29,25.10
2009,07,25,16,30,25.00
2009,07,25,16,31,25.10
2009,07,25,16,32,25.10
2009,07,25,16,33,25.20
2009,07,25,16,34,25.20
2009,07,25,16,35,25.30
2009,07,25,16,36,25.30
2009,07,25,16,37,25.30
2009,07,25,16,38,25.30
2009,07,25,16,39,25.20
2009,07,25,16,40,25.10
2009,07,25,16,41,24.90
2009,07,25,16,42,24.80
2009,07,25,16,43,24.70
2009,07,25,16,44,24.60
2009,07,25,16,45,24.50
2009,07,25,16,46,24.40
2009,07,25,16,47,24.40
2009,07,25,16,48,24.30
2009,07,25,16,49,24.30
2009,07,25,16,50,24.20
2009,07,25,16,51,24.10
2009,07,25,16,52,24.00
2009,07,25,16,53,23.90
2009,07,25,16,54,23.80
2009,07,25,16,55,23.80
2009,07,25,16,56,23.80
2009,07,25,16,57,23.90
2009,07,25,16,58,23.90
2009,07,25,16,59,24.10
2009,07,25,17,00,24.10
2009,07,25,17,01,24.10
2009,07,25,17,02,24.10
2009,07,25,17,03,24.10
2009,07,25,17,04,24.10
2009,07,25,17,05,24.10
2009,07,25,17,06,24.10
2009,07,25,17,07,24.10
2009,07,25,17,08,24.10
2009,07,25,17,09,24.10
2009,07,25,17,10,24.10
2009,07,25,17,11,24.10
2009,07,25,17,12,24.00
2009,07,25,17,13,23.90
2009,07,25,17,14,23.70
2009,07,25,17,15,23.70
2009,07,25,17,16,23.70
2009,07,25,17,17,23.70
2009,07,25,17,18,23.70
2009,07,25,17,19,23.70